[[{"header":{"parameterUnit":"m.s-1","parameterCategory":1,"la1":30.2991,"la2":30.254,"lo1":-89.0895,"lo2":-89.0444,"dy":0.0017,"dx":0.0017,"nx":28,"ny":28,"refTime":"2025-09-07T03:00:00:Z","depth":0,"parameterNumber":2,"parameterNumberName":"U-component_of_WINDS"},"data":[0,0,0,0,0,0,0,0,0,0,0,0,0,0,0,0,0,0,0,0,0,0,0,0,0,0,0,0,0,0,0,0,0,0,0,0,0,0,0,0,0,0,0,0,0,0,0,0,0,0,0,0,0,0,0,0,0,0,-1.0712,-1.0712,0,-1.0711,-1.0711,-1.0711,-1.0675,-1.0674,-1.0673,-1.0672,-1.0671,-1.0672,-1.0673,0,0,0,0,0,0,0,0,0,0,0,0,0,-1.0684,-1.0685,-1.0712,-1.0712,-1.0712,-1.0711,-1.0711,-1.0711,-1.0675,-1.0674,-1.0673,-1.0672,-1.0671,-1.0672,-1.0673,0,0,0,0,0,0,0,0,0,0,0,0,0,-1.0691,-1.0685,-1.0712,-1.0694,-1.0692,-1.0711,-1.0711,-1.0711,-1.0675,-1.0674,-1.0672,-1.0671,-1.0671,-1.0672,-1.0673,-1.0709,0,0,-1.0677,-1.0678,0,0,0,0,0,0,0,0,-1.069,-1.0692,-1.0697,-1.0695,-1.0693,-1.0691,-1.07,-1.071,-1.0675,-1.0682,-1.0672,-1.067,-1.0679,-1.068,-1.0683,-1.0709,-1.0709,-1.0677,-1.0678,-1.0679,-1.0679,0,0,0,0,0,0,0,-1.069,-1.0692,-1.0712,-1.0697,-1.0695,-1.0686,-1.0685,-1.0702,-1.0688,-1.0681,-1.0678,-1.0679,-1.0678,-1.0681,-1.0682,-1.0709,-1.0677,-1.0678,-1.0679,-1.068,-1.0764,-1.0765,0,0,0,0,0,0,-1.0692,-1.0692,-1.0712,-1.0712,-1.0688,-1.0688,-1.0687,-1.0694,-1.0688,-1.0686,-1.068,-1.0677,-1.068,-1.0681,-1.0682,-1.0723,-1.0679,-1.068,-1.0681,-1.0763,-1.0764,-1.0766,0,0,0,0,0,0,-1.0692,-1.0694,-1.0712,-1.0701,-1.0702,-1.069,-1.0697,-1.0694,-1.0697,-1.0687,-1.0685,-1.0686,-1.0679,-1.068,-1.0702,-1.0723,-1.068,-1.0682,-1.0761,-1.0763,-1.0765,-1.0806,0,0,0,0,0,0,-1.0691,-1.0694,-1.0708,-1.0701,-1.0703,-1.0732,-1.0698,-1.0695,-1.07,-1.0696,-1.0692,-1.069,-1.0678,-1.0701,-1.0704,-1.0724,-1.0683,-1.0759,-1.0762,-1.0764,-1.0803,-1.081,-1.0815,0,0,0,0,0,-1.069,-1.072,-1.0709,-1.0711,-1.072,-1.0733,-1.0734,-1.072,-1.0701,-1.0715,-1.0708,-1.069,-1.072,-1.0703,-1.0706,-1.0727,-1.0758,-1.0761,-1.0764,-1.08,-1.0808,-1.0815,0,0,0,0,0,0,-1.073,-1.0719,-1.0706,-1.0735,-1.0735,-1.0727,-1.0744,-1.0729,-1.0734,-1.0731,-1.0712,-1.0712,-1.0736,-1.0734,-1.0716,-1.0761,-1.0736,-1.074,-1.0762,-1.0769,-1.0775,-1.0776,-1.0684,0,0,0,0,0,-1.0742,-1.0754,-1.0743,-1.077,-1.077,-1.0757,-1.0763,-1.0751,-1.0751,-1.0751,-1.0746,-1.0746,-1.0756,-1.0762,-1.077,-1.0802,-1.0801,-1.0818,-1.0824,-1.0829,-1.0833,-1.0849,-1.0856,-1.0777,-1.0777,-1.0777,0,0,-1.0767,-1.0762,-1.0771,-1.0777,-1.0776,-1.0789,-1.0758,-1.0773,-1.0782,-1.0753,-1.0773,-1.077,-1.0769,-1.0796,-1.0808,-1.0795,-1.0854,-1.0833,-1.0837,-1.0838,-1.0853,-1.086,-1.0867,-1.0779,-1.0779,-1.0778,0,0,-1.0819,-1.0817,-1.0838,-1.0837,-1.0836,-1.0827,-1.0832,-1.0826,-1.0822,-1.0842,-1.082,-1.0831,-1.0848,-1.0848,-1.085,-1.0901,-1.0885,-1.0904,-1.0936,-1.0952,-1.0958,-1.0964,-1.0982,-1.0988,-1.0908,-1.0908,-1.0908,0,-1.0851,-1.0869,-1.0851,-1.0867,-1.087,-1.0844,-1.0865,-1.0866,-1.0867,-1.087,-1.0855,-1.0875,-1.0873,-1.0899,-1.0911,-1.0914,-1.0919,-1.0905,-1.0959,-1.0964,-1.0969,-1.0986,-1.0992,-1.0911,-1.091,-1.091,-1.091,0,-1.0908,-1.092,-1.0938,-1.0939,-1.0944,-1.0963,-1.0948,-1.0955,-1.0942,-1.0935,-1.0955,-1.0951,-1.0958,-1.0963,-1.0951,-1.0987,-1.0979,-1.0962,-1.0936,-1.0979,-1.0995,-1.1001,-1.0914,-1.0913,-1.0912,-1.0912,0,0,-1.0986,-1.0976,-1.0983,-1.0983,-1.0978,-1.0988,-1.1005,-1.1011,-1.1017,-1.1018,-1.1032,-1.1046,-1.103,-1.1032,-1.102,-1.1034,-1.1074,-1.1015,-1.1015,-1.1026,-1.1113,-1.1126,-1.1134,-1.1063,-1.1064,-1.1065,-1.1113,0,-1.1037,-1.1065,-1.1049,-1.108,-1.1091,-1.1065,-1.108,-1.1079,-1.1072,-1.108,-1.1072,-1.1083,-1.106,-1.1062,-1.1074,-1.1067,-1.1091,-1.1063,-1.1076,-1.1076,-1.1077,-1.1142,-1.1156,-1.1202,-1.1119,-1.112,-1.1121,0,-1.11,-1.1103,-1.1134,-1.1127,-1.1131,-1.1144,-1.1148,-1.1156,-1.1154,-1.1148,-1.115,-1.1134,-1.115,-1.1124,-1.1146,-1.1127,-1.1131,-1.1128,-1.1129,-1.113,-1.1101,-1.1145,-1.1216,-1.1223,-1.113,-1.1129,-1.1129,0,-1.1154,-1.1166,-1.1186,-1.1186,-1.1178,-1.1188,-1.1185,-1.1182,-1.1186,-1.1189,-1.1191,-1.1196,-1.1199,-1.1203,-1.1189,-1.1171,-1.1212,-1.1185,-1.1208,-1.1208,-1.1218,-1.1218,-1.1291,-1.122,-1.122,-1.122,-1.122,0,-1.1212,-1.1232,-1.121,-1.1222,-1.1244,-1.1225,-1.1247,-1.1242,-1.1238,-1.1249,-1.1227,-1.1238,-1.1219,-1.1227,-1.1216,-1.1236,-1.1237,-1.1233,-1.123,-1.1235,-1.1235,-1.1237,-1.1234,-1.1222,-1.1222,-1.1221,-1.1221,0,-1.1276,-1.1262,-1.1282,-1.1272,-1.127,-1.1286,-1.1278,-1.1289,-1.128,-1.1294,-1.1296,-1.1282,-1.1291,-1.1277,-1.1284,-1.1277,-1.1303,-1.1295,-1.1304,-1.1302,-1.1325,-1.1323,-1.1403,-1.1412,-1.1335,-1.1336,-1.1337,0,-1.1314,-1.1329,-1.132,-1.1325,-1.1323,-1.1333,-1.1336,-1.1318,-1.1323,-1.1321,-1.1332,-1.1339,-1.1343,-1.1359,-1.1349,-1.1355,-1.1347,-1.1374,-1.1348,-1.1352,-1.1347,-1.1346,-1.1348,-1.138,-1.1381,-1.1382,-1.1382,0,-1.1384,-1.1375,-1.1381,-1.1385,-1.1389,-1.1391,-1.1391,-1.1397,-1.1378,-1.1384,-1.1392,-1.1396,-1.1403,-1.141,-1.1413,-1.141,-1.1393,-1.1391,-1.1396,-1.1402,-1.1406,-1.1404,-1.1319,-1.1389,-1.1388,-1.1388,-1.1387,-1.1387,-1.1436,-1.1447,-1.1443,-1.145,-1.1447,-1.1448,-1.1457,-1.1449,-1.1456,-1.1459,-1.1448,-1.1459,-1.1456,-1.1458,-1.1456,-1.1465,-1.1452,-1.1461,-1.1463,-1.1465,-1.1468,-1.1404,-1.1465,-1.1465,-1.1465,-1.1464,-1.1464,0,-1.1504,-1.1499,-1.1506,-1.1506,-1.1511,-1.1494,-1.1493,-1.1499,-1.1508,-1.1506,-1.1511,-1.152,-1.1527,-1.1517,-1.1522,-1.153,-1.1523,-1.1532,-1.1531,-1.1531,-1.1479,-1.1474,-1.1538,-1.1538,-1.1538,-1.1538,-1.1538,-1.1538,-1.154,-1.1558,-1.1549,-1.1566,-1.1561,-1.1571,-1.1572,-1.1572,-1.157,-1.1582,-1.1586,-1.158,-1.1575,-1.1579,-1.1584,-1.1581,-1.1583,-1.1596,-1.159,-1.1542,-1.1535,-1.1528,-1.1523,-1.1597,-1.1597,-1.1641,-1.1642,-1.1642]},{"header":{"parameterUnit":"m.s-1","parameterCategory":1,"la1":30.2991,"la2":30.254,"lo1":-89.0895,"lo2":-89.0444,"dy":0.0017,"dx":0.0017,"nx":28,"ny":28,"refTime":"2025-09-07T03:00:00:Z","depth":0,"parameterNumber":3,"parameterNumberName":"V-component_of_WINDS"},"data":[0,0,0,0,0,0,0,0,0,0,0,0,0,0,0,0,0,0,0,0,0,0,0,0,0,0,0,0,0,0,0,0,0,0,0,0,0,0,0,0,0,0,0,0,0,0,0,0,0,0,0,0,0,0,0,0,0,0,-5.5282,-5.5282,0,-5.5347,-5.5348,-5.5348,-5.5302,-5.53,-5.5298,-5.5296,-5.5356,-5.536,-5.5363,0,0,0,0,0,0,0,0,0,0,0,0,0,-5.5111,-5.5114,-5.5282,-5.5282,-5.5283,-5.5347,-5.5348,-5.5349,-5.5303,-5.53,-5.5298,-5.5295,-5.5355,-5.5359,-5.5364,0,0,0,0,0,0,0,0,0,0,0,0,0,-5.5181,-5.5115,-5.5281,-5.5268,-5.5268,-5.5347,-5.5348,-5.5349,-5.5303,-5.53,-5.5297,-5.5294,-5.5354,-5.5359,-5.5364,-5.5458,0,0,-5.538,-5.5382,0,0,0,0,0,0,0,0,-5.5177,-5.5187,-5.5269,-5.5269,-5.5269,-5.5314,-5.5309,-5.5385,-5.5304,-5.529,-5.5296,-5.5293,-5.5344,-5.535,-5.5369,-5.546,-5.5463,-5.5381,-5.5384,-5.5386,-5.5387,0,0,0,0,0,0,0,-5.5172,-5.5184,-5.5307,-5.5271,-5.527,-5.5257,-5.5264,-5.5324,-5.5333,-5.5291,-5.5287,-5.5296,-5.5343,-5.5364,-5.537,-5.5464,-5.538,-5.5385,-5.5388,-5.539,-5.5635,-5.5638,0,0,0,0,0,0,-5.517,-5.5181,-5.5305,-5.5309,-5.5215,-5.5262,-5.527,-5.5302,-5.5332,-5.5334,-5.5299,-5.5294,-5.5356,-5.5364,-5.5372,-5.5483,-5.5386,-5.5391,-5.5394,-5.5632,-5.5636,-5.5639,0,0,0,0,0,0,-5.5166,-5.5181,-5.5302,-5.5244,-5.5259,-5.5269,-5.5305,-5.5305,-5.5325,-5.5338,-5.5339,-5.5318,-5.5354,-5.5364,-5.5437,-5.5484,-5.5393,-5.5398,-5.5628,-5.5633,-5.5638,-5.5706,0,0,0,0,0,0,-5.5162,-5.518,-5.5217,-5.5245,-5.5262,-5.5369,-5.5308,-5.5309,-5.5335,-5.533,-5.5357,-5.5358,-5.5353,-5.5429,-5.5442,-5.549,-5.5402,-5.5623,-5.563,-5.5636,-5.5699,-5.5713,-5.5724,0,0,0,0,0,-5.5156,-5.5232,-5.5219,-5.5235,-5.5309,-5.5372,-5.5381,-5.5374,-5.534,-5.5376,-5.5384,-5.5358,-5.5477,-5.5437,-5.5451,-5.5501,-5.562,-5.5628,-5.5635,-5.5694,-5.571,-5.5724,0,0,0,0,0,0,-5.5206,-5.5236,-5.5222,-5.531,-5.5339,-5.5364,-5.5409,-5.5392,-5.5429,-5.5422,-5.541,-5.5417,-5.5493,-5.5504,-5.5459,-5.5593,-5.5543,-5.5554,-5.5583,-5.5598,-5.561,-5.5605,-5.5406,0,0,0,0,0,-5.5229,-5.528,-5.5301,-5.5377,-5.5393,-5.5399,-5.5426,-5.5419,-5.5447,-5.5458,-5.5472,-5.5499,-5.5542,-5.5571,-5.5612,-5.5701,-5.5706,-5.5742,-5.5755,-5.5765,-5.5773,-5.5821,-5.5837,-5.5664,-5.5664,-5.5664,0,0,-5.5273,-5.5296,-5.5328,-5.5388,-5.541,-5.546,-5.5409,-5.5465,-5.5502,-5.5466,-5.5536,-5.5547,-5.5576,-5.5658,-5.5694,-5.5669,-5.5823,-5.5774,-5.5782,-5.5786,-5.5831,-5.5847,-5.5861,-5.5669,-5.5668,-5.5668,0,0,-5.5381,-5.5404,-5.547,-5.5494,-5.5528,-5.5532,-5.5548,-5.5576,-5.5582,-5.5653,-5.5627,-5.567,-5.5745,-5.5767,-5.5788,-5.5906,-5.5883,-5.592,-5.5983,-5.6029,-5.6043,-5.6055,-5.6096,-5.6111,-5.5929,-5.5929,-5.5929,0,-5.5432,-5.551,-5.5505,-5.5564,-5.5591,-5.5564,-5.5629,-5.5651,-5.5696,-5.5714,-5.5686,-5.5781,-5.5799,-5.5885,-5.5914,-5.5932,-5.5948,-5.5915,-5.6042,-5.6054,-5.6065,-5.6104,-5.612,-5.5933,-5.5933,-5.5932,-5.5932,0,-5.557,-5.5625,-5.5674,-5.5721,-5.5753,-5.5814,-5.5817,-5.585,-5.5841,-5.5847,-5.5919,-5.5939,-5.5984,-5.6004,-5.5994,-5.6089,-5.6072,-5.6044,-5.5993,-5.6086,-5.6122,-5.6137,-5.5939,-5.5938,-5.5936,-5.5935,0,0,-5.571,-5.5756,-5.5774,-5.5795,-5.5831,-5.5872,-5.5932,-5.5978,-5.6006,-5.6038,-5.6087,-5.6153,-5.6127,-5.6151,-5.6143,-5.6184,-5.6276,-5.615,-5.6151,-5.6172,-5.638,-5.64,-5.6418,-5.6261,-5.6264,-5.6266,-5.6377,0,-5.5819,-5.5927,-5.5925,-5.6023,-5.6073,-5.6049,-5.6101,-5.6128,-5.6135,-5.6177,-5.6184,-5.6231,-5.6194,-5.6208,-5.6248,-5.6256,-5.6317,-5.6248,-5.6304,-5.6306,-5.6297,-5.6437,-5.6459,-5.6562,-5.6391,-5.6394,-5.6396,0,-5.596,-5.6,-5.6105,-5.6135,-5.6156,-5.6203,-5.6245,-5.6286,-5.6316,-5.6318,-5.6346,-5.6333,-5.6391,-5.6341,-5.6421,-5.6374,-5.6397,-5.6405,-5.6409,-5.6412,-5.6355,-5.6443,-5.6595,-5.661,-5.6418,-5.6416,-5.6415,0,-5.605,-5.613,-5.6203,-5.6222,-5.6259,-5.6293,-5.6309,-5.6337,-5.6365,-5.6401,-5.6419,-5.6461,-5.6483,-5.6515,-5.6513,-5.6477,-5.6594,-5.6543,-5.6596,-5.6596,-5.662,-5.6618,-5.6777,-5.6638,-5.6637,-5.6637,-5.6637,0,-5.6172,-5.6236,-5.6244,-5.6289,-5.636,-5.6357,-5.6427,-5.6439,-5.6464,-5.6509,-5.6491,-5.6533,-5.6528,-5.657,-5.6568,-5.6634,-5.6645,-5.6647,-5.6645,-5.6648,-5.6647,-5.6661,-5.6653,-5.6641,-5.664,-5.664,-5.6639,0,-5.6283,-5.6292,-5.6369,-5.64,-5.6409,-5.646,-5.6484,-5.6525,-5.6533,-5.659,-5.6603,-5.6613,-5.6662,-5.6663,-5.6718,-5.6717,-5.6798,-5.6789,-5.6788,-5.6786,-5.6838,-5.6833,-5.701,-5.7032,-5.688,-5.6881,-5.6883,0,-5.6359,-5.6409,-5.6445,-5.6476,-5.6495,-5.6544,-5.6573,-5.6572,-5.6603,-5.6642,-5.6678,-5.6726,-5.6763,-5.6842,-5.6853,-5.6895,-5.6885,-5.6945,-5.6891,-5.6893,-5.6885,-5.6881,-5.6886,-5.6954,-5.6956,-5.6958,-5.6959,0,-5.6493,-5.6495,-5.654,-5.6586,-5.6623,-5.6658,-5.6691,-5.6717,-5.6719,-5.6755,-5.6806,-5.6835,-5.6893,-5.694,-5.6981,-5.6995,-5.6977,-5.6976,-5.699,-5.6992,-5.699,-5.6991,-5.6815,-5.6971,-5.697,-5.6969,-5.6968,-5.6968,-5.6588,-5.6631,-5.6664,-5.6714,-5.674,-5.6772,-5.6812,-5.6826,-5.6869,-5.6918,-5.6914,-5.697,-5.6999,-5.7053,-5.7071,-5.7113,-5.7093,-5.7113,-5.7118,-5.7123,-5.7128,-5.6985,-5.7121,-5.7121,-5.712,-5.712,-5.712,0,-5.6719,-5.674,-5.6787,-5.6835,-5.6875,-5.6858,-5.6893,-5.6927,-5.6977,-5.7007,-5.7046,-5.7104,-5.715,-5.7165,-5.7209,-5.724,-5.7233,-5.7252,-5.7248,-5.7252,-5.7145,-5.7128,-5.7257,-5.7257,-5.7257,-5.7257,-5.7257,-5.7257,-5.6792,-5.6864,-5.6871,-5.6955,-5.6974,-5.7031,-5.7053,-5.7082,-5.7106,-5.7173,-5.7212,-5.7223,-5.7246,-5.7292,-5.7332,-5.7336,-5.7352,-5.7374,-5.7374,-5.7273,-5.7259,-5.7246,-5.723,-5.7378,-5.7378,-5.7477,-5.7477,-5.7478]}]]